487  
NZUS99 KSGF 231807  
HRRSGF  
 
HOURLY WEATHER  
NATIONAL WEATHER SERVICE SPRINGFIELD MO  
100 PM CDT SAT OCT 23 2021  
   
.....SGF CWA...
 
 
 
CITY SKY/WX TMP DP RH WIND PRES REMARKS  
SPRINGFIELD LGT RAIN 58 58 100 S14 29.88F  
6HR MIN TEMP: 56; 6HR MAX TEMP: 58; 6HR PCP: 1.74;  
 
JOPLIN PTSUNNY 62 60 93 SE9 29.87F  
6HR MIN TEMP: 57; 6HR MAX TEMP: 62; 6HR PCP: 2.74;  
 
WEST PLAINS LGT RAIN 58 55 90 CALM 30.02F  
6HR MIN TEMP: 57; 6HR MAX TEMP: 61; 6HR PCP: 0.03;  
 
ROLLA CLOUDY 57 55 93 S12 29.95F  
6HR MIN TEMP: 52; 6HR MAX TEMP: 57; 6HR PCP: 0.40;  
 
BRANSON PTSUNNY 57 55 94 N15 30.03R  
   
.....SURROUNDING SGF CWA...
 
 
 
CITY SKY/WX TMP DP RH WIND PRES REMARKS  
CHANUTE MOSUNNY 70 63 78 SE10 29.84F  
PARSONS SUNNY 70 61 73 SE10G20 29.84F  
COFFEYVILLE MOSUNNY 70 59 68 SE12G23 29.82F  
EMPORIA CLOUDY 66 62 87 E9 29.81F  
GROVE OK MOSUNNY 66 61 82 E10 29.88F  
ROGERS AR CLOUDY 63 56 78 E16 29.93R  
SILOAM SPRINGS MOSUNNY 77 63 61 SW14G22 29.90S  
HARRISON AR CLOUDY 64 55 72 N10 29.97R  
NEAR YELLVILLE PTSUNNY 70 57 63 NE12 29.95S  
   
.....KANSAS AND MISSOURI...
 
 
 
CITY SKY/WX TMP DP RH WIND PRES REMARKS  
KANSAS CTY INT CLOUDY 56 46 69 SE9 29.90F  
DOWNTOWN KC CLOUDY 56 46 69 E10 29.90F  
COLUMBIA CLOUDY 55 49 80 E6 29.95S  
SEDALIA LGT RAIN 55 53 93 E5 29.93F  
ST JOSEPH SUNNY 61 44 53 E14G20 29.90F  
ST LOUIS CLOUDY 56 48 74 E3 29.99F  
SPIRIT OF STL CLOUDY 56 50 80 E5 29.97F  
KIRKSVILLE CLOUDY 55 40 56 NE15G23 29.97F  
WICHITA MOSUNNY 76 64 66 SE14G22 29.75F  
TOPEKA CLOUDY 60 50 69 E14 29.86F  
OLATHE CLOUDY 57 50 77 E8 29.88F  
   
.....TENNESSEE...
 
 
 
CITY SKY/WX TMP DP RH WIND PRES REMARKS  
MEMPHIS MOSUNNY 77 53 43 S12 30.00F  
NASHVILLE CLOUDY 65 48 54 SE5 30.07F  
   
.....ARKANSAS....
 
 
 
CITY SKY/WX TMP DP RH WIND PRES REMARKS  
FAYETTEVILLE MOSUNNY 78 62 57 SW21G31 29.89F  
FT SMITH LGT RAIN 82 65 56 SW16G23 29.88F  
LITTLE ROCK MOSUNNY 80 61 52 SW14 29.95F  
   
.....OKLAHOMA....
 
 
 
CITY SKY/WX TMP DP RH WIND PRES REMARKS  
TULSA PTSUNNY 82 64 54 S17G28 29.78F  
PONCA CITY SUNNY 84 63 49 SW9 29.75F  
MCALESTER MOSUNNY 78 65 63 S12G24 29.87F  
OKLAHOMA CITY MOSUNNY 81 63 54 S21G28 29.79F  
   
.....IOWA.........
 
 
 
CITY SKY/WX TMP DP RH WIND PRES REMARKS  
DES MOINES MOSUNNY 53 33 46 E12 30.01F  
QUAD CITIES SUNNY 53 36 52 VRB5 30.04F  
   
.....ILLINOIS.....
 
 
 
CITY SKY/WX TMP DP RH WIND PRES REMARKS  
QUINCY PTSUNNY 56 39 53 NE13 29.99F  
CHICAGO MOSUNNY 53 31 42 NW8 30.04F  
 
 
 
CLICK HERE TO GO TO PREVIOUS BULLETINS.

The Nexlab MO Page
The Nexlab KS Page Main Text Page